Location: Csohesd
(46.2500°N, 22.6167°E)
Time: 13:34:25
(UTC+00:00)

Landsat 5 - Pass Details

Date: 21 October 2021
Orbit: 528 x 652 km, 98.2° (Epoch: 06 December)

Event Time Altitude Azimuth Distance (km) Brightness Sun altitude
Rises 16:51:01 0° 12° (NNE) 2,907 6.9 -14.2°
Reaches altitude 10° 16:53:11 10° 12° (NNE) 2,013 6.1 -14.6°
Maximum altitude 16:57:35 81° 286° (WNW) 654 3.7 -15.4°
Drops below altitude 10° 17:02:04 10° 199° (SSW) 2,046 6.4 -16.2°
Sets 17:04:17 0° 198° (SSW) 2,958 7.3 -16.5°
